Location: *
(46.1866°S, 178.5290°W)
Time: 05:37:47
(UTC+00:00)

CZ-4B R/B - Pass Details

Date: 23 September 2021
Orbit: 809 x 881 km, 99.1° (Epoch: 17 October)

Event Time Altitude Azimuth Distance (km) Brightness Sun altitude
Rises 06:20:57 0° 159° (SSE) 3,376 6.2 -5.8°
Reaches altitude 10° 06:23:29 10° 151° (SSE) 2,433 5.4 -6.3°
Maximum altitude 06:28:30 39° 82° (E) 1,210 3.6 -7.1°
Drops below altitude 10° 06:33:28 10° 13° (NNE) 2,407 5.4 -8.0°
Sets 06:35:57 0° 5° (N) 3,336 6.2 -8.4°
